Weather Roundup
Issued by NWS

Home | Current Version | Previous Version | Graphics & Text | Print | Product List | Glossary Off
Versions: 1 2 3 4 5 6 7 8 9 10 11 12 13 14 15 16 17 18 19 20 21 22 23 24 25 26 27 28 29 30 31 32 33 34 35 36 37 38 39 40 41 42 43 44 45 46 47 48 49 50

000
NZUS93 KARX 311659
HRRWXR

CURRENT HOURLY OBSERVATIONS ACROSS
MUCH OF THE UPPER MISSISSIPPI VALLEY
NATIONAL WEATHER SERVICE LA CROSSE WI
1100 AM CST SAT JAN 31 2015


...SOUTHEAST MINNESOTA...


CITY           SKY/WX    TMP DP  RH WIND       PRES   REMARKS
ROCHESTER      CLOUDY    28  24  85 E3        30.17R
ROCHESTER/MAYO CLOUDY    29  23  79 N3        30.18R
WINONA         CLOUDY    30  23  74 CALM      30.20F
AUSTIN         CLOUDY    28  25  86 N5        30.16S WCI  23
ALBERT LEA     CLOUDY    28  28 100 NE8       30.16R FOG     WCI  20
DODGE CENTER   CLOUDY    28  27  93 NE7       30.17R WCI  21
PRESTON        CLOUDY    27  23  85 N3        30.17R
OWATONNA       PTSUNNY   28  25  86 N5        30.18R FOG     WCI  23
FARIBAULT      PTSUNNY   28  25  86 NE5       30.18F FOG     WCI  23
$$

...ELSEWHERE IN MINNESOTA...


CITY           SKY/WX    TMP DP  RH WIND       PRES   REMARKS
MINNEAPOLIS    CLOUDY    28  21  75 N9        30.21R WCI  19
INTNL FALLS    CLOUDY     6  -2  69 NE10      30.34R HAZE    WCI  -9
DULUTH         MOSUNNY   18   6  59 N13       30.20R WCI   5
RED WING       CLOUDY    30  23  74 CALM      30.20R
REDWOOD FALLS  CLOUDY    26  24  92 N9        30.20S FOG     WCI  17
MANKATO        CLOUDY    27  23  86 NE6       30.18S WCI  20
WORTHINGTON    CLOUDY    25  21  86 NE13      30.15S WCI  13
FAIRMONT       CLOUDY    25  21  86 N9        30.15F WCI  15
$$

...SOUTHWEST WISCONSIN...


CITY           SKY/WX    TMP DP  RH WIND       PRES   REMARKS
LA CROSSE      CLOUDY    29  19  66 CALM      30.20R
PRAIRIE DU CHI CLOUDY    28  20  70 CALM      30.21R
BOSCOBEL       CLOUDY    29  19  66 S7        30.21R WCI  22
LONE ROCK      NOT AVBL
PLATTEVILLE    CLOUDY    30  23  76 SW7       30.18S WCI  23
FORT MC COY    CLOUDY    28  19  71 CALM      30.20R
VIROQUA        CLOUDY    28  22  76 NW5       30.16R WCI  23
WIS DELLS      NOT AVBL
$$

...ELSEWHERE IN WISCONSIN...


CITY           SKY/WX    TMP DP  RH WIND       PRES   REMARKS
MILWAUKEE      PTSUNNY   33  18  53 W9        30.17F WCI  25
MADISON        CLOUDY    30  19  63 VRB3      30.17S
GREEN BAY      CLOUDY    26  17  68 NW7       30.18R WCI  18
EAU CLAIRE     CLOUDY    26  18  71 NE5       30.19R WCI  20
BLACK RVR FLS  CLOUDY    28  19  68 CALM      30.19R
MEDFORD        CLOUDY    23  18  81 N6        30.15R WCI  16
WAUSAU         CLOUDY    24  17  74 N3        30.15R
WIS RAPIDS     CLOUDY    26  17  68 NW7       30.19R WCI  18
MARSHFIELD     CLOUDY    25  18  74 N5        30.16R WCI  19
RICE LAKE      CLOUDY    25  19  77 N12       30.20S WCI  15
$$

...NORTHEAST IOWA...


CITY           SKY/WX    TMP DP  RH WIND       PRES   REMARKS
DECORAH        CLOUDY    27  21  80 CALM      30.17R
MASON CITY     CLOUDY    32  27  81 N6        30.16F WCI  26
CHARLES CITY   CLOUDY    28  27  93 CALM      30.18R
OELWEIN        CLOUDY    32  27  80 VRB5      30.19R WCI  27
$$

...ELSEWHERE IN IOWA...


CITY           SKY/WX    TMP DP  RH WIND       PRES   REMARKS
DES MOINES     DRIZZLE   39  34  82 SW10      30.19S WCI  32
IOWA CITY      CLOUDY    37  29  72 SW7       30.23S WCI  32
FORT DODGE     CLOUDY    34  28  80 E3        30.15F
$$

...NORTHERN ILLINOIS...


CITY           SKY/WX    TMP DP  RH WIND       PRES   REMARKS
CHICAGO-OHARE  PTSUNNY   33  21  61 W13       30.20F WCI  24
CHICAGO-MIDWAY PTSUNNY   36  23  59 SW17      30.22F WCI  26
MOLINE         CLOUDY    37  27  67 W7        30.22F WCI  32
ROCKFORD       PTSUNNY   34  23  64 W8        30.23R WCI  27
PEORIA         CLOUDY    37  25  61 SW8       30.26F WCI  31
$$

NOTE: "FAIR" INDICATES FEW OR NO CLOUDS BELOW 12,000 FEET WITH NO
SIGNIFICANT WEATHER AND/OR OBSTRUCTIONS TO VISIBILITY. WIND
SPEEDS ARE IN MILES-PER-HOUR.



USA.gov is the U.S. government's official web portal to all federal, state and local government web resources and services.